Regional Weather Roundup
Issued by NWS Wakefield, VA

Home | Current Version | Previous Version | Text Only | Print | Product List | Glossary On
Versions: 1 2 3 4 5 6 7 8 9 10 11 12 13 14 15 16 17 18 19 20 21 22 23 24 25 26 27 28 29 30 31 32 33 34 35 36 37 38 39 40 41 42 43 44 45 46 47 48 49 50
000
ASUS41 KAKQ 220516
RWRAKQ

REGIONAL WEATHER ROUNDUP
NATIONAL WEATHER SERVICE WAKEFIELD VA
1200 AM EST FRI NOV 22 2019

Note: "fair" indicates few or no clouds below 12,000 feet with no
significant weather and/or obstructions to visibility. * = Denotes
station may not report precipitation (e.g., rain,snow,etc.),
thunder or fog.

VAZ042-051-052>054-056-220600-
NORTHERN VIRGINIA

CITY           SKY/WX    TMP DP  RH WIND       PRES   REMARKS
WASH NATIONAL  CLOUDY    51  37  58 S13       30.00F
DULLES         MOCLDY    50  35  56 S10       29.99F
FORT BELVOIR   CLOUDY    51  36  55 S6        30.00F
QUANTICO       CLOUDY    51  41  68 S10       30.02F
FREDERICKSBRG* CLOUDY    52  40  63 S7        30.01F
STAFFORD*      CLOUDY    53  38  56 S7        30.05F
WARRENTON      CLOUDY    52  34  51 S12G17    29.98F
CULPEPER*      CLOUDY    52  36  55 S8        30.00F
MANASSAS*      CLOUDY    51  37  58 SW6       30.00F
LEESBURG*      MOCLDY    50  37  62 SW8       29.98F
WINCHESTER     CLOUDY    50  36  57 SW8       29.94F
FRONT ROYAL*   CLOUDY    52  36  54 SW8       29.95F
LURAY*         FAIR      50  36  57 SW7       29.97F
$$

VAZ048-049-060>072-079>083-220600-
CENTRAL AND SOUTH CENTRAL VIRGINIA

CITY           SKY/WX    TMP DP  RH WIND       PRES   REMARKS
RICHMOND       MOCLDY    50  38  63 S13       30.06
CHESTERFIELD*  CLOUDY    50  38  63 S8        30.07F
PETERSBURG*    CLOUDY    49  37  63 SW5       30.09F
HANOVER        CLOUDY    51  36  56 S12       30.06F
TAPPAHANNOCK*  FAIR      50  38  63 S6        30.05F
QUINTON*       CLOUDY    50  37  62 S5        30.06F
CHARLOTTSVILLE CLOUDY    51  37  58 S10       29.99F
GORDONSVILLE*  CLOUDY    50  38  63 SW7       30.00F
ORANGE*        CLOUDY    48  36  61 SW8       30.01F
LOUISA*        CLOUDY    49  37  61 SW7       30.05F
BUMPASS*       CLOUDY    50  35  55 SW6       30.03F
FARMVILLE*     MOCLDY    51  38  61 SW10      30.04F
CREWE*         MOCLDY    49  33  53 S3        30.06F
FORT PICKETT*  CLOUDY    49  37  65 SW8       30.08S
CHASE CITY*    CLOUDY    49  38  66 CALM      30.10S
CLARKSVILLE*   MOCLDY    48  37  66 S5        30.10F
SOUTH HILL*    CLOUDY    48  37  65 S7        30.16S
LAWRENCEVILLE* CLOUDY    51  37  59 S7        30.10F
EMPORIA*       MOCLDY    48  38  69 SE5       30.12F
$$

VAZ088>098-220600-
SOUTHEAST VIRGINIA

CITY           SKY/WX    TMP DP  RH WIND       PRES   REMARKS
NORFOLK        CLOUDY    50  37  61 SW10      30.11F
VIRGINIA BEACH CLOUDY    48  36  63 SW9       30.12F
NORFOLK NAVAL  MOCLDY    49  37  63 S8        30.12F
WEST POINT*    CLOUDY    51  39  63 S6        30.10F
SALUDA*        CLOUDY    49  38  64 S5        30.08F
NEWPORT NEWS   CLOUDY    50  37  61 SW12      30.10F
LANGLEY AFB    CLOUDY    50  38  63 S13       30.10
FORT EUSTIS    CLOUDY    50  38  64 S7        30.09F
WILLIAMSBURG*  MOCLDY    52  39  62 CALM      30.11S
HR EXEC AP*    MOCLDY    45  37  73 S7        30.13F
FRANKLIN*      MOCLDY    47  38  71 S6        30.12F
US460-WAKEFLD  CLOUDY    49  38  65 VRB3      30.10
$$

VAZ020-022-025-037-045-220600-
WEST CENTRAL AND SOUTHWEST VIRGINIA

CITY           SKY/WX    TMP DP  RH WIND       PRES   REMARKS
STAUNTON*      CLOUDY    49  37  63 S6        30.02F
WAYNESBORO*    CLOUDY    47  37  66 CALM      30.00F
HOT SPRINGS VA CLOUDY    48  36  61 W21G29    30.02F
LYNCHBURG      CLOUDY    47  39  74 S8        30.05
DANVILLE       MOCLDY    45  38  76 SW3       30.10F
SOUTH BOSTON*  MOCLDY    50  37  61 S3        30.09F
MARTINSVILLE   CLOUDY    49  40  70 CALM      30.11F
ROANOKE        CLOUDY    49  38  65 CALM      30.07
BLACKSBURG     FAIR      43  40  88 CALM      30.09F
DUBLIN*        FAIR      47  39  72 SW8       30.08F
MARION*        CLOUDY    51  38  62 SW10      30.11F
HILLSVILLE*    FAIR      45  39  78 S6        30.07F
RICHLANDS*     CLOUDY    52  34  51 SW16G23   30.08F
WISE*          CLOUDY    52  37  58 SW20G29   30.08F
ABINGDON*      CLOUDY    47  36  63 W7        30.12R
$$

MDZ021>025-VAZ099-100-220600-
SOUTHERN MARYLAND AND THE DELMARVA PENINSULA

CITY           SKY/WX    TMP DP  RH WIND       PRES   REMARKS
PATUXENT RIVER NOT AVBL
BAY BRIDGE APT CLOUDY    50  39  66 S12       30.00F
LEONARDTOWN    CLOUDY    50  36  57 SW9       30.04F
DOVER          CLOUDY    47  36  65 S14       30.01
GEORGETOWN     NOT AVBL
EASTON         FAIR      50  40  66 S15       30.03F
CAMBRIDGE      CLOUDY    50  39  66 S8        30.04F
SALISBURY      CLOUDY    46  38  73 S6        30.07F
TANGIER        NOT AVBL
OCEAN CITY     MOCLDY    49  39  68 SW13      30.08S
WALLOPS ISLAND FAIR      45  38  76 SW9       30.09
ACCOMACK*      NOT AVBL
$$

NCZ012>017-030>032-220600-
NORTH CENTRAL AND EASTERN NORTH CAROLINA

CITY           SKY/WX    TMP DP  RH WIND       PRES   REMARKS
ROANOKE RAPIDS FAIR      43  41  93 S5        30.12F
RALEIGH        MOCLDY    51  39  63 SW7       30.14F
ELIZABETH CITY MOCLDY    47  38  71 MISG      30.14F
AHOSKIE*       FAIR      42  38  86 S3        30.14F
EDENTON*       FAIR      48  43  83 S8        30.16F
CURRITUCK*     MOCLDY    45  41  86 S3        30.14F
KILL DEVIL HLS FAIR      47  41  77 MISG      30.15F
MANTEO         FAIR      49  41  74 SW9       30.17F
CAPE HATTERAS  FAIR      50  40  68 SW5       30.18F
TARBORO*       FAIR      43  39  86 S5        30.15S
GOLDSBORO      FAIR      46  39  77 S3        30.14F
WASHINGTON     FAIR      45  39  78 CALM      30.16F
GREENVILLE     FAIR      46  37  71 SW7       30.16F
NEW BERN       FAIR      42  39  89 SW6       30.19F
WILMINGTON     FAIR      44  41  89 CALM      30.19F
$$

VAZ048-220600-
ELSEWHERE

CITY           SKY/WX    TMP DP  RH WIND       PRES   REMARKS
HARRISBURG PA  CLOUDY    51  34  52 S9        29.95F
BALTIMORE      CLOUDY    51  35  54 SW5       29.99F
ANNAPOLIS      CLOUDY    50  37  61 S6        29.99F
ANDREWS AFB    NOT AVBL
PHILADELPHIA   CLOUDY    49  32  52 S12       29.98F
HENDERSON NC   FAIR      47  36  66 SW8       30.11F
GREENSBORO     MOCLDY    50  40  68 SW8       30.10
ROCKY MOUNT    FAIR      45  39  79 S3        30.15F
$$

VAZ100-220600-
MARINE

STATION/POSITION TIME  TEMP    WIND        PRES    WAVE   SWELL
                       AIR SEA DIR/SP/G            HT/PER HT/PER
                 (UTC) (F)     (DEG/KT/KT) (MB)    (FT/S) (FT/S)
CAPE MAY NJ      0424   47 47  190/ 10/ 13 1017.7
LEWES DE         0424   47 49  220/  4/  8 1018.0
15NM E FENWICK I 0450   53 57  210/ 19/ 21 1016.0F   3/ 4   2/ 8
OCEAN-CITY-INLET 0430   49 51  230/ 10/ 13 1019.6R
44089 WALLOPS IS 0500      53                N/A     3/ 4
WACHAPREAGUE VA  0424   48 49  230/  6/ 10 1019.4
THOMAS POINT MD  0500   50 49  170/ 16/ 17 1016.6F
GOOSES REEF MD   0454   51     210/ 16/ 17 1017.2F
SOLOMONS ISLAND  0424   50 51  200/  9/ 12 1017.3
BISHOPS HEAD MD  0430   50 48  200/ 12/ 16 1018.6F
PINEY POINT MD   0430          200/  9/ 12   N/A
POTOMAC MD       0454   51 51              1020.7F
CAMBRIDGE MD     0430   50 47  190/  9/ 13 1017.8F
LEWISETTA VA     0430   51 48  230/  9/ 12 1018.1F
RAPPAHANNOCK LGT 0430          180/ 17/ 20 1020.1F
YORK RVR RNG VA  0424   51     210/ 11/ 13 1019.9
YORKTOWN VA      0418   50 51  210/  6/  9 1019.1
JAMESTOWN VA     0454   49 50              1019.7F
DOMINION TERM VA 0430   49     220/  9/ 11 1020.2F
KIPTOPEKE VA     0430      51  210/ 12/ 15   N/A
CAPE HENRY VA    0424   49     200/  7/ 12 1020.2
WILLOUBY STN VA  0418   50     210/ 14/ 16 1019.4
S CRANEY ISL VA  0424   49     200/  7/ 10 1020.1
CAPE HENRY BUOY  0500      57                N/A     3/ 3
1ST LANDING BUOY 0450   49     220/ 12/ 14 1019.7F
64NM E OF VA BCH 0450   54 58  230/ 14/ 16 1020.8F   4/ 7   3/ 7
DUCK PIER NC     0424   50 56  190/  9/ 11 1020.6
44100 DUCK FRF   0500      58                N/A     3/ 9
44056 DUCK FRF   0430      54                N/A     3/ 9
OREGON INLET NC  0430   51 54  200/  9/ 11 1021.5F
HATTERAS NC      0430   52 58  230/  4/  5 1022.1F
DIAMOND SHLS NC  0450   57 78  280/  6/ 12 1021.6F   4/ 8   3/ 8
CAPE LOOKOUT NC  0500   55     200/  3/  3 1022.4F
$$



USA.gov is the U.S. government's official web portal to all federal, state and local government web resources and services.